Regional Weather Roundup
Issued by NWS Cleveland, OH

Home | Current Version | Previous Version | Text Only | Print | Product List | Glossary Off
Versions: 1 2 3 4 5 6 7 8 9 10 11 12 13 14 15 16 17 18 19 20 21 22 23 24 25 26 27 28 29 30 31 32 33 34 35 36 37 38 39 40 41 42 43 44 45 46 47 48 49 50

000
ASUS41 KCLE 280110
RWRCLE
OHIO REGIONAL WEATHER ROUNDUP
NATIONAL WEATHER SERVICE WILMINGTON, OH
900 PM EDT SAT AUG 27 2016

NOTE: "FAIR" INDICATES FEW OR NO CLOUDS BELOW 12,000 FEET WITH NO
SIGNIFICANT WEATHER AND/OR OBSTRUCTIONS TO VISIBILITY.

OHZ001>008-015>018-024>027-034-035-043-044-280200-
   NORTHWEST OHIO

CITY           SKY/WX    TMP DP  RH WIND       PRES   REMARKS
DEFIANCE       FAIR      76  71  85 CALM      30.11R
FINDLAY        FAIR      74  70  87 SE7       30.12R
TOLEDO EXPRESS FAIR      72  72 100 CALM      30.11R
TOLEDO EXEC    FAIR      74  72  93 SE5       30.12R
LIMA           FAIR      73  72  96 S3        30.13R
$$

OHZ009>014-019>023-028>033-038-089-280200-
   NORTHEAST OHIO

CITY           SKY/WX    TMP DP  RH WIND       PRES   REMARKS
CLE-HOPKINS    CLOUDY    75  71  87 NE9       30.14F
CLE-LAKEFRONT  LGT RAIN  75  71  87 NE3       30.12F
CUY CO. ARPT   LGT RAIN  73  73 100 S6        30.15S
LORAIN-ELYRIA  MOCLDY    72  70  93 CALM      30.15R
ASHTABULA      FAIR      75  69  81 E5        30.15R
AKRON-CANTON   MOCLDY    73  68  84 N9        30.16S
WOOSTER        FAIR      70  68  93 CALM      30.16S
MANSFIELD      FAIR      71  69  93 NE7       30.17R
YOUNGSTOWN     MOCLDY    78  66  66 E6        30.16R
$$

OHZ042-051>053-060>062-070>072-077>081-280200-
  SOUTHWEST OHIO

CITY           SKY/WX    TMP DP  RH WIND       PRES   REMARKS
CINC-COVINGTON FAIR      77  73  87 SE7       30.13R
CINC-LUNKEN    CLEAR     73  73 100 SE3       30.12R
HAMILTON       FAIR      75  71  87 CALM      30.13R
DAYTON         FAIR      75  71  87 SE3       30.14R
WRIGHT-PAT AFB PTCLDY    75  72  92 VRB1      30.13R
DAYTON GENERAL FAIR      74  69  85 CALM      30.13R
WILMINGTON     FAIR      72  70  93 CALM      30.14R
$$

OHZ036-037-039>041-045>050-054>059-063>069-073>076-082>088-280200-
  CENTRAL AND SOUTHEAST OHIO

CITY           SKY/WX    TMP DP  RH WIND       PRES   REMARKS
COLUMBUS       MOCLDY    73  69  87 NE3       30.14R
OSU AIRPORT    FAIR      73  70  90 CALM      30.15R
BOLTON FIELD   FAIR      72  70  95 CALM      30.15R
RICKENBACK AFB FAIR      73  70  88 CALM      30.13R
NEWARK         FAIR      73  69  87 N3        30.14R
MARION         FAIR      72  69  90 CALM      30.15R
LANCASTER      FAIR      73  70  90 CALM      30.14R
ZANESVILLE     FAIR      74  68  81 N3        30.15R
NEW PHILLY     FAIR      75  70  84 CALM      30.15S
$$



USA.gov is the U.S. government's official web portal to all federal, state and local government web resources and services.